This is the latest recevied weather packets stored in our database for station/object KB1RMA-13. If no packets are shown the sender has not sent any weather packets the latest 10 day(s).
| Time | Temp. | Humidity | Pressure | Rain* | Wind** | Luminosity | Snow |
|---|---|---|---|---|---|---|---|
| 1777674901 | 16.11° C | 33% | 1009.1 hPa | 0 mm | - | 80 W/m² | - |
| 1777674597 | 16.67° C | 33% | 1009 hPa | 0 mm | - | 90 W/m² | - |
| 1777674295 | 16.67° C | 33% | 1009 hPa | 0 mm | - | 101 W/m² | - |
| 1777673991 | 16.67° C | 35% | 1009.1 hPa | 0 mm | - | 115 W/m² | - |
| 1777673688 | 16.11° C | 37% | 1009 hPa | 0 mm | - | 128 W/m² | - |
| 1777673386 | 16.67° C | 36% | 1008.8 hPa | 0 mm | - | 141 W/m² | - |
| 1777673083 | 16.67° C | 36% | 1008.9 hPa | 0 mm | - | 154 W/m² | - |
| 1777672778 | 16.67° C | 33% | 1009 hPa | 0 mm | - | 168 W/m² | - |
| 1777672476 | 16.67° C | 31% | 1008.6 hPa | 0 mm | - | 182 W/m² | - |
| 1777672171 | 16.67° C | 32% | 1008.7 hPa | 0 mm | - | 194 W/m² | - |
| 1777671867 | 16.67° C | 33% | 1008.7 hPa | 0 mm | - | 213 W/m² | - |
| 1777671562 | 16.67° C | 34% | 1008.7 hPa | 0 mm | - | 228 W/m² | - |
| 1777671260 | 17.22° C | 33% | 1008.5 hPa | 0 mm | - | 245 W/m² | - |
| 1777670955 | 17.22° C | 34% | 1008.6 hPa | 0 mm | - | 262 W/m² | - |
| 1777670652 | 16.67° C | 34% | 1008.5 hPa | 0 mm | - | 281 W/m² | - |
| 1777670349 | 17.22° C | 33% | 1008.3 hPa | 0 mm | - | 305 W/m² | - |
| 1777670046 | 17.22° C | 33% | 1008.3 hPa | 0 mm | - | 320 W/m² | - |
| 1777669744 | 16.67° C | 34% | 1008.5 hPa | 0 mm | - | 339 W/m² | - |
| 1777669440 | 16.67° C | 33% | 1008.3 hPa | 0 mm | - | 358 W/m² | - |
| 1777669137 | 17.22° C | 32% | 1008.4 hPa | 0 mm | - | 375 W/m² | - |
| 1777668834 | 16.67° C | 33% | 1008 hPa | 0 mm | - | 399 W/m² | - |
| 1777668530 | 16.67° C | 33% | 1008.1 hPa | 0 mm | - | 413 W/m² | - |
| 1777668227 | 16.67° C | 32% | 1008.3 hPa | 0 mm | - | 427 W/m² | - |
| 1777667923 | 16.67° C | 33% | 1008.2 hPa | 0 mm | - | 446 W/m² | - |
| 1777667620 | 16.67° C | 33% | 1008.4 hPa | 0 mm | - | 465 W/m² | - |
* Rain latest hour (hover to see other rain measurements)
** Current wind speed in m/s (hover to see current wind gust speed)